Weather History for PPIZ - October, 2012

Change the Weather History Date:

Wednesday, October 10, 2012

  Actual Average Record
Temperature  
Mean Temperature 24 °F -  
Max Temperature 31 °F 24 °F 39 °F (2006)
Min Temperature 17 °F 17 °F 0 °F (1996)
Degree Days  
Heating Degree Days 41    
Moisture  
Dew Point 19 °F    
Average Humidity 83    
Maximum Humidity 93    
Minimum Humidity 78    
Precipitation  
Precipitation 0.00 in - - ()
Sea Level Pressure  
Sea Level Pressure 30.55 in    
Wind  
Wind Speed - (North)    
Max Wind Speed -    
Max Gust Speed -    
Visibility 10 miles    
Events      
Averages and records for this station are not official NWS values.
T = Trace of Precipitation, MM = Missing Value Source: NWS Daily Summary

Daily Weather History Graph

Daily Weather History Graph

Search for Another Location

Airport or City:

Trip Planner

Search our weather history database for the weather conditions in past years. The results will help you decide how hot, cold, wet, or windy it might be!

Date:

Astronomy

Oct. 10, 2012 Rise Set
Actual Time 9:46 AM AKDT 7:29 PM AKDT
Civil Twilight 8:45 AM AKDT 8:30 PM AKDT
Nautical Twilight 7:35 AM AKDT 9:39 PM AKDT
Astronomical Twilight 6:20 AM AKDT 10:54 PM AKDT
Moon 1:57 AM AKDT (10/10) 6:47 PM AKDT (10/10)
Length of Visible Light 11h 45m
Length of Day
9h 43m
Waning Crescent, 26% of the Moon is Illuminated
Oct 10
Waning Crescent
Oct 15
New
Oct 21
First Quarter
Oct 29
Full
Nov 6
Last Quarter

Hourly Weather History & Observations

Time (AKDT) Temp. Dew Point Humidity Pressure Visibility Wind Dir Wind Speed Gust Speed Precip Events Conditions
12:56 AM 26.6 °F 21.2 °F 80% 30.68 in 10.0 mi North - - N/A   Overcast
1:56 AM 26.1 °F 21.0 °F 81% 30.68 in 10.0 mi North - - N/A   Overcast
2:41 AM 24.8 °F 19.4 °F 80% 30.66 in 10.0 mi North - - N/A   Partly Cloudy
2:56 AM 23.0 °F 19.0 °F 85% 30.68 in 10.0 mi North - - N/A   Clear
3:56 AM 21.2 °F 17.6 °F 86% 30.64 in 10.0 mi North - - N/A   Clear
4:56 AM 22.1 °F 18.1 °F 85% 30.65 in 10.0 mi North - - N/A   Clear
5:56 AM 20.1 °F 17.1 °F 88% 30.63 in 10.0 mi North - - N/A   Clear
6:56 AM 19.4 °F 15.8 °F 86% 30.61 in 10.0 mi North - - N/A   Clear
7:56 AM 20.1 °F 17.1 °F 88% 30.61 in 10.0 mi North - - N/A   Clear
8:56 AM 19.0 °F 15.1 °F 85% 30.61 in 10.0 mi North - - N/A   Clear
9:56 AM 17.6 °F 15.8 °F 93% 30.58 in 10.0 mi North - - N/A   Clear
10:56 AM 20.1 °F 15.1 °F 81% 30.58 in 10.0 mi North - - N/A   Clear
11:56 AM 19.0 °F 15.1 °F 85% 30.56 in 10.0 mi North - - N/A   Clear
12:56 PM 19.4 °F 15.8 °F 86% 30.54 in 10.0 mi North - - N/A   Clear
1:56 PM 21.0 °F 16.2 °F 81% 30.55 in 10.0 mi North - - N/A   Clear
2:56 PM 21.0 °F 16.2 °F 81% 30.53 in 10.0 mi North - - N/A   Clear
3:56 PM 23.0 °F 17.6 °F 80% 30.51 in 10.0 mi North - - N/A   Clear
4:56 PM 24.1 °F 19.0 °F 81% 30.48 in 10.0 mi North - - N/A   Clear
5:56 PM 25.2 °F 21.0 °F 84% 30.47 in 10.0 mi North - - N/A   Partly Cloudy
6:18 PM 24.8 °F 21.2 °F 86% 30.46 in 10.0 mi North - - N/A   Mostly Cloudy
6:56 PM 30.2 °F 26.6 °F 86% 30.45 in 10.0 mi North - - N/A   Overcast
7:56 PM 31.1 °F 26.1 °F 82% 30.44 in 10.0 mi North - - N/A   Overcast
8:56 PM 30.0 °F 25.2 °F 82% 30.43 in 10.0 mi North - - N/A   Overcast
9:56 PM 30.2 °F 24.8 °F 80% 30.40 in 10.0 mi North - - N/A   Overcast
10:56 PM 30.0 °F 24.1 °F 79% 30.41 in 10.0 mi North - - N/A   Overcast
11:56 PM 29.1 °F 23.0 °F 78% 30.40 in 10.0 mi North - - N/A   Overcast